SWARM A (39452 NORAD) Tracking and Keplerian Element Data

This shows tracking and keplerian element data for the satellite.

Feedback or suggestion? Click here.




ElementValue
Catalog39452
NameSWARM A
Epoch Orbit28023
Epoch Day322.95377852
Epoch Year2018
RAAN340.8935
Inclination87.3452
Eccentricity0.0003443
Argument of Perigee92.3716
Mean Anonmoly267.7935
Mean Motion15.43464576
Decay Rate1.115E-05
L11 39452U 13067B 18322.95377852 .00001115 00000-0 23887-4 0 9992
L22 39452 87.3452 340.8935 0003443 92.3716 267.7935 15.43464576280237

Live tracking and technical data element details for SWARM A (NORAD 39452). SWARM A can be tracked NOW for your location showing map with azimuth and elevation plus other details from your city location.

Track the satellite on the map from your city or location and see movement details for azimuth, elevation, latitude, longitude, range, height, and movement on the map or in text.







IsCatalogInMostPopularTable: catalog: 39452, numindb: 112
Update: records affected: 1



GetName: 39452 SWARM A

Hit Count: updated at: Mon, 19 Nov 2018 14:07:29 GMT